| time (UTC) | temp C | wind direction | speed KPH | gust KPH | rain 1hr cm | rain 24hr cm | rain mn cm | humidity % | barometer mb |
| 20260504050429 | 4 | 212 | 1.6 | 3.2 | 0.00 | 0.00 | 0.00 | 87 | 1015.0 |
| 20260504045928 | 4 | 230 | 3.2 | 3.2 | 0.00 | 0.00 | 0.00 | 88 | 1015.0 |
| 20260504045428 | 3 | 235 | 1.6 | 1.6 | 0.00 | 0.00 | 0.00 | 89 | 1015.0 |
| 20260504044929 | 3 | 234 | 1.6 | 3.2 | 0.00 | 0.00 | 0.00 | 90 | 1015.0 |
| 20260504044428 | 3 | 204 | 1.6 | 1.6 | 0.00 | 0.00 | 0.00 | 90 | 1015.0 |
| 20260504043930 | 3 | 245 | 1.6 | 1.6 | 0.00 | 0.00 | 0.00 | 90 | 1015.0 |
| 20260504043428 | 3 | 208 | 1.6 | 1.6 | 0.00 | 0.00 | 0.00 | 90 | 1015.0 |
| 20260504042928 | 3 | 222 | 3.2 | 3.2 | 0.00 | 0.00 | 0.00 | 90 | 1015.0 |
| 20260504042428 | 3 | 228 | 1.6 | 1.6 | 0.00 | 0.00 | 0.00 | 90 | 1015.0 |
| 20260504041928 | 3 | 207 | 1.6 | 3.2 | 0.00 | 0.00 | 0.00 | 90 | 1015.0 |
| 20260504041428 | 3 | 229 | 1.6 | 3.2 | 0.00 | 0.00 | 0.00 | 89 | 1015.0 |
| 20260504040928 | 3 | 213 | 3.2 | 3.2 | 0.00 | 0.00 | 0.00 | 89 | 1015.0 |
| 20260504040428 | 3 | 289 | 0.0 | 1.6 | 0.00 | 0.00 | 0.00 | 89 | 1015.0 |
| 20260504035928 | 3 | 202 | 1.6 | 3.2 | 0.00 | 0.00 | 0.00 | 89 | 1015.0 |
| 20260504035428 | 3 | 224 | 1.6 | 1.6 | 0.00 | 0.00 | 0.00 | 89 | 1015.0 |
| 20260504034929 | 3 | 224 | 1.6 | 3.2 | 0.00 | 0.00 | 0.00 | 89 | 1015.0 |
| 20260504034428 | 3 | 218 | 1.6 | 3.2 | 0.00 | 0.00 | 0.00 | 89 | 1015.0 |
| 20260504033928 | 3 | 216 | 1.6 | 1.6 | 0.00 | 0.00 | 0.00 | 88 | 1015.0 |
| 20260504033428 | 3 | 232 | 1.6 | 1.6 | 0.00 | 0.00 | 0.00 | 88 | 1015.0 |
| 20260504032928 | 4 | 220 | 0.0 | 1.6 | 0.00 | 0.00 | 0.00 | 87 | 1015.0 |
| 20260504032428 | 4 | 232 | 1.6 | 3.2 | 0.00 | 0.00 | 0.00 | 87 | 1015.0 |
| 20260504031929 | 4 | 220 | 1.6 | 1.6 | 0.00 | 0.00 | 0.00 | 86 | 1015.0 |
| 20260504031429 | 4 | 212 | 1.6 | 3.2 | 0.00 | 0.00 | 0.00 | 86 | 1015.0 |
| 20260504030928 | 4 | 231 | 1.6 | 3.2 | 0.00 | 0.00 | 0.00 | 86 | 1015.0 |
| 20260504030430 | 4 | 213 | 1.6 | 3.2 | 0.00 | 0.00 | 0.00 | 86 | 1015.0 |
| 20260504025928 | 4 | 252 | 0.0 | 1.6 | 0.00 | 0.00 | 0.00 | 85 | 1015.0 |
| 20260504025429 | 4 | 218 | 0.0 | 0.0 | 0.00 | 0.00 | 0.00 | 84 | 1015.0 |
| 20260504024928 | 4 | 224 | 1.6 | 3.2 | 0.00 | 0.00 | 0.00 | 84 | 1015.0 |
| 20260504024429 | 5 | 215 | 0.0 | 1.6 | 0.00 | 0.00 | 0.00 | 83 | 1015.0 |
| 20260504023929 | 5 | 228 | 1.6 | 1.6 | 0.00 | 0.00 | 0.00 | 83 | 1015.0 |
| 20260504023428 | 5 | 234 | 1.6 | 3.2 | 0.00 | 0.00 | 0.00 | 82 | 1015.0 |
| 20260504022929 | 5 | 217 | 1.6 | 3.2 | 0.00 | 0.00 | 0.00 | 82 | 1015.0 |
| 20260504022429 | 5 | 219 | 0.0 | 1.6 | 0.00 | 0.00 | 0.00 | 81 | 1015.0 |
| 20260504021929 | 5 | 253 | 0.0 | 1.6 | 0.00 | 0.00 | 0.00 | 81 | 1015.0 |
| 20260504021429 | 5 | 213 | 1.6 | 1.6 | 0.00 | 0.00 | 0.00 | 79 | 1015.0 |
| 20260504020928 | 5 | 234 | 0.0 | 1.6 | 0.00 | 0.00 | 0.00 | 79 | 1015.0 |
| 20260504020428 | 5 | 217 | 1.6 | 3.2 | 0.00 | 0.00 | 0.00 | 80 | 1015.0 |
| 20260504015929 | 6 | 218 | 1.6 | 1.6 | 0.00 | 0.00 | 0.00 | 78 | 1015.0 |
| 20260504015428 | 6 | 214 | 1.6 | 3.2 | 0.00 | 0.00 | 0.00 | 77 | 1015.0 |
| 20260504014928 | 6 | 222 | 1.6 | 1.6 | 0.00 | 0.00 | 0.00 | 77 | 1015.0 |
| 20260504014428 | 6 | 214 | 1.6 | 3.2 | 0.00 | 0.00 | 0.00 | 76 | 1015.0 |
| 20260504013928 | 6 | 211 | 1.6 | 3.2 | 0.00 | 0.00 | 0.00 | 75 | 1015.0 |
| 20260504013428 | 6 | 200 | 1.6 | 3.2 | 0.00 | 0.00 | 0.00 | 74 | 1015.0 |
| 20260504012928 | 7 | 216 | 3.2 | 3.2 | 0.00 | 0.00 | 0.00 | 74 | 1015.0 |
| 20260504012428 | 7 | 201 | 1.6 | 1.6 | 0.00 | 0.00 | 0.00 | 74 | 1015.0 |
| 20260504011929 | 7 | 209 | 1.6 | 1.6 | 0.00 | 0.00 | 0.00 | 73 | 1015.0 |
| 20260504011429 | 7 | 207 | 3.2 | 3.2 | 0.00 | 0.00 | 0.00 | 71 | 1015.0 |
| 20260504010928 | 7 | 210 | 1.6 | 3.2 | 0.00 | 0.00 | 0.00 | 71 | 1015.0 |
| 20260504010428 | 8 | 207 | 3.2 | 3.2 | 0.00 | 0.00 | 0.00 | 69 | 1015.0 |
| 20260504005929 | 8 | 213 | 3.2 | 3.2 | 0.00 | 0.00 | 0.00 | 66 | 1015.0 |
| 20260504005428 | 8 | 235 | 1.6 | 1.6 | 0.00 | 0.00 | 0.00 | 63 | 1015.0 |
| 20260504004928 | 8 | 218 | 3.2 | 3.2 | 0.00 | 0.00 | 0.00 | 62 | 1015.0 |
| 20260504004428 | 8 | 206 | 3.2 | 3.2 | 0.00 | 0.00 | 0.00 | 63 | 1015.0 |
| 20260504003928 | 9 | 224 | 3.2 | 3.2 | 0.00 | 0.00 | 0.00 | 63 | 1015.0 |
| 20260504003428 | 9 | 226 | 3.2 | 3.2 | 0.00 | 0.00 | 0.00 | 63 | 1015.0 |
| 20260504002928 | 10 | 223 | 3.2 | 3.2 | 0.00 | 0.00 | 0.00 | 62 | 1015.0 |
| 20260504002428 | 10 | 221 | 1.6 | 1.6 | 0.00 | 0.00 | 0.00 | 60 | 1015.0 |
| 20260504001928 | 10 | 231 | 1.6 | 3.2 | 0.00 | 0.00 | 0.00 | 58 | 1015.0 |
| 20260504001428 | 11 | 228 | 1.6 | 3.2 | 0.00 | 0.00 | 0.00 | 57 | 1015.0 |
| 20260504000928 | 11 | 199 | 1.6 | 3.2 | 0.00 | 0.00 | 0.00 | 54 | 1014.0 |
| 20260504000430 | 11 | 203 | 3.2 | 3.2 | 0.00 | 0.00 | 0.00 | 52 | 1014.0 |
| 20260503235928 | 12 | 218 | 3.2 | 4.8 | 0.00 | 0.00 | 0.00 | 53 | 1014.0 |
| 20260503235428 | 12 | 218 | 3.2 | 4.8 | 0.00 | 0.00 | 0.00 | 50 | 1014.0 |
| 20260503234928 | 12 | 200 | 1.6 | 3.2 | 0.00 | 0.00 | 0.00 | 53 | 1014.0 |
| 20260503234428 | 12 | 217 | 3.2 | 3.2 | 0.00 | 0.00 | 0.00 | 46 | 1014.0 |
| 20260503233929 | 12 | 214 | 3.2 | 3.2 | 0.00 | 0.00 | 0.00 | 47 | 1014.0 |
| 20260503233429 | 13 | 224 | 3.2 | 8.0 | 0.00 | 0.00 | 0.00 | 46 | 1014.0 |
| 20260503232928 | 13 | 203 | 1.6 | 3.2 | 0.00 | 0.00 | 0.00 | 44 | 1014.0 |
| 20260503232428 | 13 | 239 | 3.2 | 9.7 | 0.00 | 0.00 | 0.00 | 42 | 1014.0 |
| 20260503231928 | 13 | 222 | 3.2 | 9.7 | 0.00 | 0.00 | 0.00 | 42 | 1014.0 |
| 20260503231428 | 13 | 176 | 3.2 | 3.2 | 0.00 | 0.00 | 0.00 | 43 | 1014.0 |
| 20260503230928 | 13 | 234 | 3.2 | 9.7 | 0.00 | 0.00 | 0.00 | 42 | 1014.0 |
| 20260503230428 | 13 | 215 | 3.2 | 3.2 | 0.00 | 0.00 | 0.00 | 43 | 1014.0 |
| 20260503225928 | 13 | 202 | 3.2 | 4.8 | 0.00 | 0.00 | 0.00 | 45 | 1014.0 |
| 20260503225428 | 13 | 223 | 4.8 | 11.3 | 0.00 | 0.00 | 0.00 | 41 | 1014.0 |
| 20260503224928 | 13 | 218 | 4.8 | 14.5 | 0.00 | 0.00 | 0.00 | 42 | 1014.0 |
| 20260503224428 | 13 | 221 | 3.2 | 4.8 | 0.00 | 0.00 | 0.00 | 45 | 1014.0 |
| 20260503223928 | 13 | 211 | 3.2 | 3.2 | 0.00 | 0.00 | 0.00 | 44 | 1014.0 |
| 20260503223428 | 13 | 230 | 6.4 | 11.3 | 0.00 | 0.00 | 0.00 | 40 | 1014.0 |
| 20260503222929 | 14 | 236 | 11.3 | 20.9 | 0.00 | 0.00 | 0.00 | 40 | 1014.0 |
| 20260503222429 | 14 | 221 | 6.4 | 9.7 | 0.00 | 0.00 | 0.00 | 42 | 1014.0 |
| 20260503220928 | 14 | 231 | 8.0 | 14.5 | 0.00 | 0.00 | 0.00 | 41 | 1014.0 |
| 20260503215928 | 14 | 237 | 6.4 | 12.9 | 0.00 | 0.00 | 0.00 | 41 | 1014.0 |
| 20260503215429 | 14 | 234 | 11.3 | 17.7 | 0.00 | 0.00 | 0.00 | 42 | 1014.0 |
| 20260503214928 | 14 | 233 | 11.3 | 19.3 | 0.00 | 0.00 | 0.00 | 40 | 1014.0 |
| 20260503214428 | 14 | 228 | 9.7 | 14.5 | 0.00 | 0.00 | 0.00 | 41 | 1014.0 |
| 20260503213928 | 14 | 224 | 9.7 | 25.7 | 0.00 | 0.00 | 0.00 | 39 | 1014.0 |
| 20260503213428 | 14 | 238 | 9.7 | 20.9 | 0.00 | 0.00 | 0.00 | 40 | 1014.0 |
| 20260503212928 | 14 | 232 | 8.0 | 19.3 | 0.00 | 0.00 | 0.00 | 41 | 1014.0 |
| 20260503212428 | 14 | 223 | 8.0 | 16.1 | 0.00 | 0.00 | 0.00 | 39 | 1014.0 |
| 20260503211928 | 14 | 237 | 12.9 | 19.3 | 0.00 | 0.00 | 0.00 | 39 | 1014.0 |
| 20260503211428 | 14 | 239 | 12.9 | 20.9 | 0.00 | 0.00 | 0.00 | 40 | 1014.0 |
| 20260503210929 | 15 | 228 | 6.4 | 12.9 | 0.00 | 0.00 | 0.00 | 40 | 1014.0 |
| 20260503210428 | 15 | 222 | 8.0 | 17.7 | 0.00 | 0.00 | 0.00 | 39 | 1014.0 |
| 20260503205928 | 15 | 251 | 9.7 | 17.7 | 0.00 | 0.00 | 0.00 | 39 | 1014.0 |
| 20260503205428 | 15 | 249 | 11.3 | 20.9 | 0.00 | 0.00 | 0.00 | 39 | 1014.0 |
| 20260503204928 | 15 | 238 | 6.4 | 16.1 | 0.00 | 0.00 | 0.00 | 42 | 1014.0 |
| 20260503204428 | 15 | 244 | 9.7 | 14.5 | 0.00 | 0.00 | 0.00 | 38 | 1014.0 |
| 20260503203928 | 14 | 223 | 9.7 | 19.3 | 0.00 | 0.00 | 0.00 | 40 | 1014.0 |
| 20260503203428 | 14 | 249 | 12.9 | 19.3 | 0.00 | 0.00 | 0.00 | 41 | 1014.0 |
| 20260503202928 | 15 | 228 | 9.7 | 17.7 | 0.00 | 0.00 | 0.00 | 38 | 1014.0 |
| 20260503202428 | 15 | 294 | 8.0 | 12.9 | 0.00 | 0.00 | 0.00 | 42 | 1014.0 |
| 20260503201928 | 14 | 269 | 9.7 | 16.1 | 0.00 | 0.00 | 0.00 | 41 | 1014.0 |
| 20260503201428 | 14 | 268 | 12.9 | 20.9 | 0.00 | 0.00 | 0.00 | 41 | 1014.0 |
| 20260503200928 | 14 | 264 | 11.3 | 22.5 | 0.00 | 0.00 | 0.00 | 44 | 1014.0 |
| 20260503200428 | 14 | 236 | 11.3 | 17.7 | 0.00 | 0.00 | 0.00 | 39 | 1015.0 |
| 20260503195928 | 14 | 205 | 4.8 | 9.7 | 0.00 | 0.00 | 0.00 | 45 | 1014.0 |
| 20260503195429 | 15 | 241 | 8.0 | 14.5 | 0.00 | 0.00 | 0.00 | 43 | 1015.0 |
| 20260503194928 | 15 | 250 | 9.7 | 14.5 | 0.00 | 0.00 | 0.00 | 42 | 1014.0 |
| 20260503194428 | 15 | 286 | 6.4 | 16.1 | 0.00 | 0.00 | 0.00 | 44 | 1014.0 |
| 20260503193929 | 14 | 223 | 4.8 | 6.4 | 0.00 | 0.00 | 0.00 | 44 | 1015.0 |
| 20260503193428 | 14 | 227 | 6.4 | 8.0 | 0.00 | 0.00 | 0.00 | 40 | 1015.0 |
| 20260503192928 | 15 | 225 | 8.0 | 25.7 | 0.00 | 0.00 | 0.00 | 40 | 1014.0 |
| 20260503192428 | 14 | 224 | 6.4 | 17.7 | 0.00 | 0.00 | 0.00 | 41 | 1015.0 |
| 20260503191928 | 14 | 229 | 14.5 | 27.4 | 0.00 | 0.00 | 0.00 | 40 | 1015.0 |
| 20260503191429 | 13 | 228 | 22.5 | 38.6 | 0.00 | 0.00 | 0.00 | 42 | 1015.0 |
| 20260503190928 | 13 | 228 | 16.1 | 32.2 | 0.00 | 0.00 | 0.00 | 45 | 1015.0 |
| 20260503190429 | 13 | 224 | 8.0 | 27.4 | 0.00 | 0.00 | 0.00 | 43 | 1016.0 |
| 20260503185928 | 13 | 227 | 6.4 | 9.7 | 0.00 | 0.00 | 0.00 | 40 | 1015.0 |
| 20260503184928 | 13 | 226 | 6.4 | 12.9 | 0.00 | 0.00 | 0.00 | 44 | 1015.0 |
| 20260503184428 | 14 | 234 | 11.3 | 20.9 | 0.00 | 0.00 | 0.00 | 42 | 1015.0 |
| 20260503183428 | 13 | 218 | 4.8 | 12.9 | 0.00 | 0.00 | 0.00 | 44 | 1015.0 |
| 20260503182928 | 13 | 223 | 8.0 | 12.9 | 0.00 | 0.00 | 0.00 | 42 | 1015.0 |
| 20260503182428 | 13 | 215 | 11.3 | 24.1 | 0.00 | 0.00 | 0.00 | 44 | 1015.0 |
| 20260503181930 | 13 | 218 | 6.4 | 11.3 | 0.00 | 0.00 | 0.00 | 42 | 1016.0 |
| 20260503181428 | 13 | 224 | 8.0 | 19.3 | 0.00 | 0.00 | 0.00 | 42 | 1015.0 |
| 20260503180929 | 13 | 222 | 6.4 | 11.3 | 0.00 | 0.00 | 0.00 | 47 | 1015.0 |
| 20260503180429 | 12 | 257 | 6.4 | 12.9 | 0.00 | 0.00 | 0.00 | 42 | 1016.0 |
| 20260503175928 | 13 | 253 | 9.7 | 19.3 | 0.00 | 0.00 | 0.00 | 42 | 1016.0 |
| 20260503175428 | 13 | 224 | 6.4 | 12.9 | 0.00 | 0.00 | 0.00 | 44 | 1016.0 |
| 20260503174928 | 12 | 238 | 9.7 | 17.7 | 0.00 | 0.00 | 0.00 | 42 | 1016.0 |
| 20260503174428 | 12 | 224 | 6.4 | 11.3 | 0.00 | 0.00 | 0.00 | 44 | 1016.0 |
| 20260503173929 | 12 | 271 | 9.7 | 22.5 | 0.00 | 0.00 | 0.00 | 47 | 1016.0 |
| 20260503173429 | 12 | 264 | 9.7 | 16.1 | 0.00 | 0.00 | 0.00 | 47 | 1015.0 |
| 20260503172928 | 12 | 216 | 9.7 | 12.9 | 0.00 | 0.00 | 0.00 | 46 | 1016.0 |
| 20260503172429 | 11 | 223 | 6.4 | 9.7 | 0.00 | 0.00 | 0.00 | 43 | 1016.0 |
| 20260503171928 | 12 | 222 | 9.7 | 12.9 | 0.00 | 0.00 | 0.00 | 43 | 1017.0 |
| 20260503171428 | 12 | 291 | 4.8 | 8.0 | 0.00 | 0.00 | 0.00 | 45 | 1016.0 |
| 20260503170929 | 12 | 330 | 9.7 | 16.1 | 0.00 | 0.00 | 0.00 | 42 | 1016.0 |
| 20260503170428 | 12 | 249 | 8.0 | 11.3 | 0.00 | 0.00 | 0.00 | 42 | 1017.0 |
| 20260503150930 | 10 | 228 | 6.4 | 11.3 | 0.00 | 0.00 | 0.00 | 48 | 1018.0 |
| 20260503150429 | 10 | 236 | 6.4 | 11.3 | 0.00 | 0.00 | 0.00 | 46 | 1018.0 |
| 20260503130928 | 6 | 242 | 4.8 | 6.4 | 0.00 | 0.00 | 0.00 | 65 | 1018.0 |
| 20260503130428 | 6 | 241 | 3.2 | 6.4 | 0.00 | 0.00 | 0.00 | 66 | 1018.0 |
| 20260503110428 | 0 | 219 | 3.2 | 3.2 | 0.00 | 0.00 | 0.00 | 98 | 1017.0 |
| 20260503090428 | 1 | 262 | 0.0 | 1.6 | 0.00 | 0.00 | 0.00 | 95 | 1017.0 |
| 20260503081429 | 1 | 264 | 1.6 | 1.6 | 0.00 | 0.00 | 0.00 | 98 | 1016.0 |
| 20260503080928 | 1 | 200 | 0.0 | 1.6 | 0.00 | 0.00 | 0.00 | 98 | 1016.0 |
| 20260503080428 | 1 | 194 | 0.0 | 0.0 | 0.00 | 0.00 | 0.00 | 98 | 1016.0 |
| 20260503072928 | 1 | 230 | 1.6 | 1.6 | 0.00 | 0.00 | 0.00 | 98 | 1016.0 |
| 20260503072428 | 1 | 0 | 0.0 | 0.0 | 0.00 | 0.00 | 0.00 | 98 | 1016.0 |
| 20260503071928 | 1 | 236 | 1.6 | 1.6 | 0.00 | 0.00 | 0.00 | 97 | 1016.0 |
| 20260503071428 | 1 | 225 | 0.0 | 1.6 | 0.00 | 0.00 | 0.00 | 98 | 1016.0 |
| 20260503070930 | 0 | 212 | 0.0 | 1.6 | 0.00 | 0.00 | 0.00 | 98 | 1016.0 |
| 20260503070428 | 0 | 208 | 0.0 | 0.0 | 0.00 | 0.00 | 0.00 | 98 | 1016.0 |
| 20260503054928 | 0 | 225 | 1.6 | 1.6 | 0.00 | 0.00 | 0.00 | 95 | 1017.0 |
| 20260503054428 | 0 | 240 | 0.0 | 0.0 | 0.00 | 0.00 | 0.00 | 94 | 1017.0 |
| 20260503053929 | 1 | 223 | 1.6 | 3.2 | 0.00 | 0.00 | 0.00 | 94 | 1017.0 |
| 20260503053428 | 1 | 216 | 1.6 | 3.2 | 0.00 | 0.00 | 0.00 | 94 | 1017.0 |